Inverbervie, United Kingdom
Current Conditions -  °F | °C
As of 1:50 PM on Monday 22 Dec 2014 (Local Time) from EGPD Reporting Station
Few Clouds Few Clouds  
Wind Chill: 42°   Ceiling: Unl
Heat Index: 46°   Visibility: 6mi
Dew Point: 36°   Wind: 9mph
Humidity: 66%   Direction: 250°WSW
Pressure: 29.47"   Gusts: NA
Location:  56.84°N, 2.28°W
Report Text: EGPD 221350Z 25008KT 9999 FEW046 08/02 Q0998 NOSIG
Loading
Personal Weather Stations






























Interactive Weather Map New forecast layout! Learn more

10-Day Weather Forecast

Advertisements
Track Severe Weather on mobile